PICOSAT 4

Satellite information

Favourite Embed

Satellite Type and Status

PAYLOADIN ORBIT

Key statistics

Satellite PICOSAT 4 at a glance.

Uptime

9232

Days in orbit

Revolutions

≈ 14.5

Per day

Orbit

SSO

Sun Synchronous Orbit

Inclination

100.2

Latest

Satellite identification and parameters

Extended collection of information and parameters for PICOSAT 4.

Object identification

Identified? True

Debris? False

Object name: PICOSAT 4

International designator: 2000-004K

Object number (NORAD): 26092

Object ID (CCSDS): 26092

Country: UNITED STATES OF AMERICA (US)

Current information (Y/N): Y

RCS size: SMALL

Orbital parameters

Period: 99.46 minutes

Inclination: 100.1827 deg

SMA: 7110.931 km

Apoapsis: 754.812 km

Periapsis: 710.781 km

RAAN: 63.0027 deg

Eccentricy: 0.003096

Argument of periapsis: 235.2203 deg

Mean anomaly: 124.6069 deg

Mean motion: 14.47814901 rev/day

Mean motion (dot): 0.00001538 rev/day2

B* drag term: 0.00042987 1/REarth

Two-line elements (TLE)

Creation date: May 6, 2025, 3:54 a.m.

Reference frame: TEME

Reference center: EARTH

Epoch: May 5, 2025, 6:47 a.m. UTC

TLE line 0: 0 PICOSAT 4

TLE line 1: 1 26092U 00004K 25125.28296430 .00001538 00000-0 42987-3 0 9992

TLE line 2: 2 26092 100.1827 63.0027 0030960 235.2203 124.6069 14.47814901327293

Live tracking on map

Real-time ground track for satellite PICOSAT 4.

In-orbit conjunctions

There are no conjunctions computed for PICOSAT 4, at the moment. Check back to stay up to date, as we update our databases every day.

Go to all conjunctions

Associated space launch

The JAWSAT (Joint Air Force Academy / Weber State University Satellite) project was developed by students working alongside aerospace professionals. Initially designed with a pulsed-plasma thruster to train Air Force Academy cadets (see JAWSAT), the mission has since evolved to include the efforts of several universities, local aerospace companies, the Air Force Academy, the Air Force Research Laboratory, and NASA. Utilizing breakthrough technologies, JAWSAT deployed four satellites when it reached orbit. The onboard imaging system recorded the deployment of each payload with its six digital cameras. The first free-flying Academy satellite, FalconSat-1 carried the CHAWS (Charging Hazards and Wake Studies) experiment developed by the Physics Department at the Academy.

PICOSAT 4 was lifted into orbit during the mission ‘Minotaur I | JAWSAT & FalconSat 1’, on board a Minotaur I space rocket.

The launch took place on Jan. 27, 2000, 3:03 a.m. from Space Launch Complex 8.

For more information about the launch, click the button.

Launch to space Minotaur I | JAWSAT & FalconSat 1
Minotaur I | JAWSAT & FalconSat 1

Agency: N/A

Status: Launch Successful

Launch date: Jan. 27, 2000, 3:03 a.m. UTC

Rocket: Minotaur I

Launch pad: Space Launch Complex 8

Location: Vandenberg SFB, CA, USA

...

Latest news about this satellite

There are no fresh news available about this satellite. Check back as we update our databases every day.


Newsletter sign-up

Weekly statistics, charts and insights to help you stay on top of the space industry.